map of MCZ home
Great Circle Mapper logo
MCZ - Airport
Location
City:  Maceió, Alagoas, Brazil
Name:Zumbi dos Palmares
Old (Alt.):Campo dos Palmares
ICAO / IATA:SBMO / MCZ

Details
Type:Airport (Aerodrome, Airfield)
Use:Public/Civil
Latitude:9°30'39"S (-9.510807)
Longitude:35°47'30"W (-35.791677)
Datum:WGS 1984
Elevation:387 ft (118 m)
Variation:22.64°W (WMM2015 magnetic declination)
0.02° annual change
Runways:1
Longest:8537 × 148 ft (2602 × 45 m), paved

Time
Time Zone:UTC-3
Local Time:

Weather
METAR:SBMO 301300Z 13013KT 9999 BKN025 28/20 Q1020
TAF:SBMO 301000Z 3012/3112 13010KT 9999 SCT025 TX29/3015Z TN20/3104Z
BECMG 3101/3103 33003KT
RMK PEA

Related Locations
Nearby:
Farthest:GUM: 12154 mi / 19560 km
Agana [Guam Intl (Antonio B. Won Pat Intl)], GU, US

Find:

   beyond  
but within

Other Information
Maps:
NOTAMs:
Links:
Sources:

  
flag of Brazil
flag of Alagoas
  

Sectional Chart

Flight Planning
at skyvector.com

Satellite Image

Google Maps Satellite view

 

Copyright © 2004-2015 Karl L. Swartz. All rights reserved.
The Great Circle Mapper name and logo are trademarks of the Great Circle Mapper.
All other trademarks mentioned herein belong to their respective owners.
Please see credits for attibutions and further copyright information.

  Follow gcmap on Facebook Follow gcmap on Twitter Follow gcmap on Google+

hCard Microformat

Geo Microformat